EHI
5 7 10 10 8 5 4 2 1 1 0 0 0 0 0 0 0 0 0 0 1 1 0 0 0 0 0 0 0 0 0 0 0 0 0 0 0 0 0 0 0 0 0
6 7 9 10 8 6 6 5 4 3 2 0 0 0 0 0 0 0 0 1 2 2 1 0 0 0 0 0 0 0 0 0 0 0 0 0 0 0 0 0 0 0 0
5 5 7 8 8 7 8 7 6 6 4 2 0 0 0 0 0 0 0 1 2 2 1 0 0 0 0 0 0 0 0 0 0 0 0 0 0 0 0 0 0 0 0
4 5 6 6 7 8 7 7 7 7 6 4 1 0 0 0 0 0 0 0 1 1 0 0 0 0 0 0 0 0 0 0 0 0 0 0 0 0 0 0 0 0 0
5 5 6 6 7 7 7 6 6 7 6 5 3 1 0 0 0 0 0 0 0 0 0 0 0 0 0 0 0 0 0 0 0 0 0 0 0 0 0 0 0 0 0
5 6 7 7 7 7 7 7 6 6 5 6 6 4 2 0 0 0 0 0 0 0 0 0 0 0 0 0 0 0 0 0 0 0 0 0 0 0 0 0 0 0 0
4 5 7 8 8 7 6 6 5 4 4 5 6 6 4 1 0 0 0 0 0 0 0 0 0 0 0 0 0 0 0 0 0 0 0 0 0 0 0 0 0 0 0
2 4 5 7 7 7 6 5 4 4 3 3 4 4 3 2 1 0 0 0 0 0 0 0 0 0 0 0 0 0 0 0 0 0 0 0 0 0 0 0 0 0 0
3 4 4 4 4 5 5 4 4 4 3 3 3 3 3 3 2 1 0 0 1 1 0 0 0 0 0 0 0 0 0 0 0 0 0 0 0 0 0 0 0 0 0
2 3 4 2 2 3 3 3 3 3 3 3 3 3 3 3 2 1 0 0 1 1 0 0 0 0 0 0 0 0 0 0 0 0 0 0 0 0 0 0 0 0 0
2 3 3 2 1 1 1 2 3 3 3 3 3 3 3 3 2 1 0 0 1 1 0 0 0 0 0 0 0 0 0 0 0 0 0 0 0 0 1 1 1 0 0
4 3 2 1 1 1 2 3 3 4 4 3 3 3 3 3 2 1 0 0 0 0 0 0 0 0 0 0 0 0 0 0 0 0 0 0 1 1 1 2 1 0 0
4 3 3 2 1 1 3 3 4 4 5 4 4 4 4 3 2 1 0 0 0 0 0 0 0 0 0 0 0 0 0 0 0 0 0 0 1 2 1 1 1 0 0
3 3 3 2 1 1 2 3 4 4 5 5 5 5 5 4 2 1 0 0 0 0 0 0 0 0 0 0 0 0 0 0 0 0 0 0 1 2 1 0 0 0 0
4 4 4 2 1 1 2 3 4 5 5 4 4 5 4 3 2 1 0 0 0 0 0 0 0 0 0 0 0 0 0 0 0 0 0 0 0 1 2 1 0 0 0
6 6 5 3 1 0 2 3 5 6 6 4 4 4 3 3 2 1 0 0 0 0 0 0 0 0 0 0 0 0 0 0 0 0 0 0 0 1 2 2 1 0 0
6 6 5 3 1 0 1 2 5 6 6 5 4 3 3 1 1 0 0 0 0 0 0 0 0 0 0 0 0 0 0 0 0 0 0 0 0 0 1 2 2 1 0
5 5 4 2 1 0 0 1 4 6 6 6 5 4 2 1 0 1 1 1 0 0 0 0 0 0 0 0 0 0 0 0 0 0 0 1 1 0 0 1 1 1 0
2 3 2 1 0 0 0 1 4 6 6 6 6 4 2 0 1 2 2 1 0 0 0 0 0 0 0 0 0 0 0 0 0 0 0 1 1 0 0 0 0 0 0
0 1 1 0 0 0 0 2 3 5 6 6 6 4 2 0 1 1 1 1 0 0 0 0 0 0 0 0 0 0 0 0 0 0 0 0 0 0 0 0 0 0 0
0 0 0 0 0 0 0 1 2 2 4 6 6 4 2 0 0 0 0 0 0 0 0 0 0 0 0 0 0 0 0 0 0 0 0 0 0 0 0 0 0 0 0
0 0 0 0 0 0 0 1 1 1 3 5 5 3 1 0 0 0 0 0 0 0 0 0 0 0 0 0 0 0 0 0 0 0 0 0 0 0 0 0 0 0 0
0 0 0 0 0 0 0 1 0 1 3 4 4 3 1 0 0 0 0 0 0 0 0 0 0 0 0 0 0 0 0 0 0 0 0 0 0 0 0 0 0 0 0
0 0 0 0 0 0 0 0 0 1 2 2 2 2 1 0 0 0 0 0 0 0 0 0 0 0 0 0 0 0 0 0 0 0 0 0 0 0 0 0 0 0 0
0 0 0 0 0 0 0 0 0 0 1 1 1 1 0 0 0 0 0 0 0 0 0 0 0 0 0 0 0 0 0 0 0 0 0 0 0 0 0 0 0 0 0
0 0 0 0 0 0 0 0 0 0 0 0 0 0 0 0 0 0 0 0 0 0 0 0 0 0 0 0 0 0 0 0 0 0 0 0 0 0 0 0 0 0 0
Wind_Speed
6 8 8 8 8 9 9 9 9 9 9 9 10 10 10 10 10 9 9 9 10 10 11 11 11 11 11 11 12 11 11 11 11 11 11 11 11 11 12 11 10 8 12
8 9 9 8 8 9 9 9 9 9 9 9 10 10 10 10 10 9 9 9 10 10 10 10 10 10 10 11 10 10 10 10 10 9 9 9 10 10 11 11 10 8 12
9 9 8 8 9 9 9 9 9 9 9 9 9 9 9 10 9 9 9 9 9 9 10 10 10 10 10 10 10 10 9 8 7 7 6 4 6 10 10 10 10 10 10
9 9 8 8 9 9 9 9 9 9 8 8 8 8 8 9 9 9 9 8 8 9 9 10 10 10 10 9 9 9 8 7 7 6 4 4 5 9 10 10 9 9 9
8 8 9 8 8 9 9 9 9 9 8 8 8 8 8 8 8 8 9 9 9 9 9 9 9 9 9 8 8 8 7 6 6 5 4 5 4 8 9 9 9 9 8
7 8 8 8 8 8 8 8 8 8 8 8 8 8 8 8 8 8 8 8 8 8 8 8 8 8 8 7 7 7 6 6 5 3 4 5 5 8 8 8 8 8 8
7 7 8 8 8 7 8 8 8 8 8 8 8 8 8 8 8 8 8 7 7 7 7 7 8 8 7 7 7 7 7 6 4 4 5 5 6 9 8 8 8 8 8
7 7 7 7 7 7 7 7 7 7 7 7 7 8 8 7 7 7 7 7 7 7 7 6 7 7 7 7 6 6 6 5 4 4 5 5 7 8 8 8 8 7 7
6 6 5 5 5 6 6 6 6 6 6 7 7 7 7 6 6 6 6 7 7 7 7 6 6 6 6 6 6 5 5 5 3 3 4 4 6 7 7 7 7 9 9
5 4 4 4 4 3 3 5 6 6 6 6 6 6 5 5 5 5 5 6 6 6 6 6 6 6 5 5 5 5 5 5 3 3 3 3 6 6 6 7 7 7 8
4 3 3 3 3 3 2 4 4 4 5 5 4 4 3 2 3 3 4 5 5 6 6 6 6 6 5 5 5 5 4 2 3 3 2 5 5 5 6 6 6 6 6
3 3 3 3 3 2 2 2 2 2 2 2 2 2 1 2 2 3 4 4 4 5 5 6 5 4 3 2 3 4 2 3 3 3 3 6 5 5 5 5 5 5 6
3 2 3 3 2 2 1 1 1 1 1 1 2 2 2 2 1 2 2 2 2 2 2 3 2 1 1 2 1 2 2 2 2 3 4 6 5 5 4 4 5 5 5
3 2 2 2 2 2 1 1 1 1 1 1 1 1 1 1 1 1 1 1 1 1 1 1 1 1 2 2 2 2 2 2 2 2 3 6 4 4 4 4 4 4 4
3 2 2 2 2 2 1 1 1 1 1 1 1 1 2 1 1 1 1 1 1 1 1 1 1 2 2 2 2 2 2 2 2 2 2 5 6 5 4 4 4 4 4
3 3 2 3 2 2 1 1 1 1 1 1 1 1 1 1 1 1 1 1 1 1 1 1 1 1 1 1 1 1 1 1 1 1 1 2 5 5 4 4 3 3 3
2 3 3 2 2 2 2 1 1 1 1 1 1 1 1 1 1 1 1 1 1 1 1 1 1 1 1 1 1 1 1 1 1 1 1 1 1 2 3 3 3 3 3
3 3 3 2 2 2 2 1 1 1 1 1 1 1 1 1 1 1 1 1 0 0 1 1 1 1 1 1 1 1 1 1 1 1 1 1 1 0 1 2 3 3 3
3 3 3 3 3 2 1 1 1 1 1 1 1 1 1 1 1 1 1 0 1 0 0 0 1 1 0 0 0 1 1 0 1 0 0 1 1 1 0 1 2 3 3
3 3 3 3 3 2 1 1 1 1 1 1 1 1 1 1 1 1 0 0 1 1 0 0 1 1 0 0 1 1 1 1 1 1 1 1 1 1 1 1 1 1 2
3 3 3 3 3 2 2 2 1 1 1 1 1 1 1 1 1 1 0 0 0 1 1 1 1 1 0 1 1 1 2 1 0 1 0 1 0 0 1 0 0 0 1
3 3 3 4 3 3 2 2 2 2 1 1 1 1 1 1 1 1 1 1 1 0 0 1 1 1 0 0 1 0 1 2 1 1 0 0 0 0 0 0 0 0 1
3 3 3 4 4 3 3 2 1 1 1 1 1 1 1 1 1 1 1 1 1 1 1 1 1 1 1 1 1 2 1 1 2 1 1 1 0 0 1 1 1 1 1
3 3 2 3 3 3 3 3 4 2 2 2 2 2 2 1 1 1 1 1 1 1 1 2 1 1 2 1 1 0 1 1 1 1 2 1 1 1 1 1 2 2 1
3 3 3 3 3 3 3 4 4 3 2 1 1 2 2 1 1 1 1 1 1 1 1 1 1 1 1 2 1 1 1 1 1 1 2 2 2 2 2 2 2 2 1
2 2 3 4 4 4 4 4 4 4 3 3 2 3 2 1 1 2 2 2 2 2 2 2 2 2 2 1 1 1 1 1 1 1 2 2 2 2 2 2 2 1 1
Wind_Direction
105 109 101 93 90 85 83 84 83 80 78 76 79 78 74 70 70 75 77 76 76 76 75 75 72 71 69 68 65 65 65 66 68 68 69 71 73 73 70 68 69 67 71
111 113 101 94 92 88 85 83 83 82 79 78 80 78 75 72 70 71 75 78 79 77 76 76 73 72 71 69 67 66 64 63 65 65 68 70 75 75 71 70 71 72 72
109 114 106 94 92 88 85 82 81 83 82 80 79 78 78 77 72 67 70 77 77 75 74 74 73 71 70 69 69 67 65 62 60 60 65 69 77 78 77 76 75 74 73
110 113 108 96 93 90 88 84 80 78 81 82 80 78 79 79 74 69 67 72 76 75 75 75 73 71 70 67 67 65 62 58 53 51 57 63 72 78 79 78 78 78 76
103 108 108 102 98 94 90 87 83 79 75 79 81 80 79 78 76 75 71 68 70 73 76 77 75 72 69 67 67 63 56 50 51 44 53 60 63 77 76 76 75 75 74
99 104 111 104 102 98 93 89 84 79 74 74 76 78 80 79 79 78 76 73 69 71 75 77 75 73 70 66 60 54 45 40 37 41 59 61 62 75 74 74 76 77 74
97 102 113 106 103 101 96 90 86 80 75 73 72 73 77 78 78 77 76 76 75 77 80 80 77 73 71 66 57 47 34 31 35 48 61 64 66 72 70 71 77 78 78
97 100 111 108 104 100 96 92 88 83 79 77 74 70 70 72 77 78 75 74 75 83 84 82 81 75 71 68 61 46 26 18 38 54 64 68 72 71 71 72 71 73 78
88 95 104 110 106 97 93 91 89 86 81 76 75 73 69 67 71 76 76 73 74 81 84 82 80 77 72 67 59 46 26 15 22 50 71 69 73 72 72 73 74 73 73
87 88 99 103 101 102 101 96 91 90 83 76 72 70 67 66 67 71 72 71 73 77 83 85 84 81 74 67 56 38 16 12 30 44 65 72 72 73 75 79 78 76 73
101 94 93 102 99 100 111 104 98 98 94 88 83 76 65 63 69 71 72 69 73 75 83 82 88 80 71 64 48 29 20 28 32 45 62 78 76 76 80 79 77 75 73
123 113 105 101 107 109 108 109 120 112 119 112 105 93 74 55 60 74 77 71 65 71 79 76 75 73 64 58 34 20 26 24 30 44 51 69 72 71 78 77 74 75 75
123 111 106 106 109 111 105 119 123 123 124 116 102 96 89 77 72 76 82 73 63 63 65 72 73 66 59 61 44 32 26 32 46 43 45 53 60 66 71 78 75 71 69
130 115 102 106 110 109 105 102 111 102 104 81 91 97 90 82 71 71 79 81 74 65 67 62 63 62 62 57 58 43 26 33 51 56 47 45 51 55 63 73 76 74 70
138 132 116 118 110 106 108 114 93 94 93 85 78 91 90 96 92 75 70 80 74 70 72 57 42 54 52 42 43 44 29 30 41 61 50 40 39 47 50 61 69 71 66
146 140 130 133 129 122 115 118 123 117 106 103 86 79 95 95 101 99 82 71 73 89 84 73 58 57 44 54 44 26 30 21 35 65 84 47 34 35 40 45 54 60 58
150 133 132 136 137 140 142 150 137 147 134 122 114 110 98 97 114 112 106 88 70 87 90 91 76 57 45 62 59 17 28 13 23 49 82 86 43 28 27 29 35 42 39
145 141 148 139 139 150 159 156 148 133 134 129 123 132 118 98 110 104 108 109 90 82 93 104 108 79 35 18 18 353 5 2 353 36 65 93 87 49 9 13 15 14 14
153 152 156 148 146 156 159 146 141 132 131 121 116 113 122 99 101 108 129 134 130 102 99 114 84 115 87 6 337 322 312 259 257 235 111 109 98 93 86 6 8 359 354
149 147 152 147 145 148 140 115 121 126 124 106 110 109 115 114 114 106 122 138 140 130 121 115 108 85 116 250 335 342 301 264 207 164 141 105 107 112 98 56 9 339 347
145 152 160 156 159 157 159 159 164 166 161 165 160 156 146 133 117 113 124 130 133 156 181 160 129 121 19 22 39 339 308 284 166 161 98 89 112 108 80 67 46 324 293
157 165 175 171 174 173 174 174 177 174 182 183 186 174 177 167 140 136 142 168 187 148 160 151 142 146 301 94 112 99 321 318 317 273 195 185 169 49 318 339 318 335 317
164 177 186 180 180 177 158 153 152 128 127 168 189 188 183 168 156 151 174 179 181 163 193 188 184 173 194 232 149 143 160 236 305 287 263 241 238 281 277 273 274 271 265
174 176 183 181 179 180 169 170 169 176 197 219 200 198 197 179 171 171 190 204 192 186 188 204 189 202 171 201 237 218 198 177 166 296 293 270 283 290 283 297 290 267 251
168 176 186 183 187 186 181 181 180 185 198 201 189 190 202 191 184 192 200 205 207 193 186 206 190 199 196 190 196 214 248 287 232 211 267 280 297 278 271 272 261 255 246
165 179 191 190 194 189 183 184 185 188 184 189 202 203 205 204 202 203 210 214 215 202 192 204 200 197 209 207 213 210 193 198 230 236 258 266 275 281 284 274 258 256 254